CREW DRAGON DEMO-1 DEB (44064 NORAD) Tracking and Keplerian Element Data

This shows tracking and keplerian element data for the satellite.

Feedback or suggestion? Click here.




ElementValue
Catalog44064
NameCREW DRAGON DEMO-1 DEB
Epoch Orbit13564
Epoch Day200.88031934
Epoch Year2021
RAAN60.7312
Inclination51.6051
Eccentricity0.0011883
Argument of Perigee271.9116
Mean Anonmoly88.0549
Mean Motion16.38696548
Decay Rate0.06113351
L11 44064U 19011B 21200.88031934 .06113351 12365-4 50191-3 0 9991
L22 44064 51.6051 60.7312 0011883 271.9116 88.0549 16.38696548135644



Live tracking and technical data element details for CREW DRAGON DEMO-1 DEB (NORAD 44064). CREW DRAGON DEMO-1 DEB can be tracked NOW for your location showing map with azimuth and elevation plus other details from your city location.







IsCatalogInMostPopularTable: catalog: 44064, numindb: 372
Update: records affected: 1



GetName: 44064 CREW DRAGON DEMO-1 DEB

Hit Count: updated at: Fri, 19 Apr 2024 13:20:41 GMT